{"data":{"norad_id":56010,"intl_designator":"2023-042AA","name":"STARLINK-5968","alt_names":[],"object_type":"PAYLOAD","status":"ACTIVE","operator":null,"country":"US","launch_date":"2023-03-24","launch_site_code":"AFETR","launch_vehicle":null,"mission":null,"orbit_class":"UNKNOWN","rcs_meters":null,"size_class":null,"mass_kg":null,"dimensions":null,"purposes":["comms"],"wikipedia_slug":null,"has_3d_model":false,"image_url":null,"decayed_at":null,"tle_current":{"epoch":"2026-05-24T23:03:20.609280Z","epoch_age_seconds":78521,"freshness":"FRESH","line1":"1 56010U 23042AA  26144.96065520  .00000155  00000+0  15171-4 0  9992","line2":"2 56010  43.0052 348.9010 0001619 271.5253  88.5413 15.27575235174536","mean_motion":15.27575235,"eccentricity":0.0001619,"inclination_deg":43.0052,"raan_deg":348.901,"arg_perigee_deg":271.5253,"mean_anomaly_deg":88.5413,"bstar":1.5171e-5,"rev_number":17453,"period_min":94.267042762054,"perigee_km":481.95253586198,"apogee_km":484.17419253991,"semimajor_km":6861.2003642009,"source":"CELESTRAK","updated_at":"2026-05-25T13:38:17.926325Z"}}}